Location: Cardiff
(53.7833°N, 113.6000°W)
Time: 08:39:37
(UTC+00:00)

RS-15 - Pass Details

Date: 10 December 2023
Orbit: 1893 x 2151 km, 64.8° (Epoch: 21 February)

Event Time Altitude Azimuth Distance (km) Brightness Sun altitude
Exits shadow 14:42:10 - 294° (WNW) 4,498 9.2 -8.0°
Reaches altitude 10° 14:43:21 10° 288° (WNW) 4,377 9.2 -7.8°
Maximum altitude 14:46:23 11° 272° (W) 4,228 9.3 -7.5°
Drops below altitude 10° 14:49:24 10° 255° (WSW) 4,326 9.4 -7.1°
Sets 14:56:05 0° 226° (SW) 5,281 10.1 -6.2°
